Page, AZ

12:53 PM MDT on April 27, 2017 (GMT -0600)
Page Municipal

Weather History for KPGA - June, 2013

Change the Weather History Date:

Monday, June 10, 2013

  Actual Average Record
Temperature  
Mean Temperature 86 °F -  
Max Temperature 99 °F 88 °F 102 °F (1985)
Min Temperature 73 °F 60 °F 49 °F (1965)
Cooling Degree Days 21    
Growing Degree Days 36 (Base 50)    
Moisture  
Dew Point 13 °F    
Average Humidity 7    
Maximum Humidity 14    
Minimum Humidity 4    
Precipitation  
Precipitation 0.00 in - - ()
Sea Level Pressure  
Sea Level Pressure 29.69 in    
Wind  
Wind Speed 7 mph (SSW)    
Max Wind Speed 13 mph    
Max Gust Speed 30 mph    
Visibility 10 miles    
Events      
Averages and records for this station are not official NWS values.
T = Trace of Precipitation, MM = Missing Value Source: NWS Daily Summary

Daily Weather History Graph

Daily Weather History Graph

Search for Another Location

Airport or City:

Trip Planner

Search our weather history database for the weather conditions in past years. The results will help you decide how hot, cold, wet, or windy it might be!

Date:

Astronomy

Jun. 10, 2013 Rise Set
Actual Time 5:05 AM MST 7:44 PM MST
Civil Twilight 4:35 AM MST 8:15 PM MST
Nautical Twilight 3:57 AM MST 8:53 PM MST
Astronomical Twilight 3:14 AM MST 9:36 PM MST
Moon 6:55 AM MST (6/10) 9:16 PM MST (6/10)
Length of Visible Light 15h 40m
Length of Day
14h 39m
Waxing Crescent, 4% of the Moon is Illuminated
Jun 10
Waxing Crescent
Jun 16
First Quarter
Jun 23
Full
Jun 29
Last Quarter
Jul 8
New

Hourly Weather History & Observations

Time (MST) Temp. Dew Point Humidity Pressure Visibility Wind Dir Wind Speed Gust Speed Precip Events Conditions
12:53 AM 87.1 °F 19.9 °F 8% 29.70 in 10.0 mi West 9.2 mph - N/A   Clear
1:53 AM 86.0 °F 19.9 °F 9% 29.70 in 10.0 mi WNW 6.9 mph - N/A   Clear
2:53 AM 84.0 °F 21.0 °F 10% 29.71 in 10.0 mi West 4.6 mph - N/A   Clear
3:53 AM 82.9 °F 19.9 °F 10% 29.72 in 10.0 mi Variable 4.6 mph - N/A   Clear
4:53 AM 73.9 °F 19.9 °F 13% 29.73 in 10.0 mi SE 6.9 mph - N/A   Clear
5:53 AM 75.0 °F 21.9 °F 14% 29.75 in 10.0 mi SE 4.6 mph - N/A   Clear
6:53 AM 79.0 °F 23.0 °F 13% 29.76 in 10.0 mi SE 5.8 mph - N/A   Clear
7:53 AM 82.0 °F 21.9 °F 11% 29.78 in 10.0 mi ESE 4.6 mph - N/A   Clear
8:53 AM 87.1 °F 21.0 °F 9% 29.78 in 10.0 mi NE 3.5 mph - N/A   Clear
9:53 AM 90.0 °F 21.0 °F 8% 29.77 in 10.0 mi East 8.1 mph - N/A   Clear
10:53 AM 93.9 °F 19.9 °F 7% 29.75 in 10.0 mi NE 6.9 mph - N/A   Clear
11:53 AM 95.0 °F 12.0 °F 5% 29.73 in 10.0 mi Calm Calm - N/A   Clear
12:53 PM 98.1 °F 8.1 °F 4% 29.70 in 10.0 mi SW 9.2 mph 18.4 mph N/A   Clear
1:53 PM 99.0 °F 8.1 °F 4% 29.68 in 10.0 mi Variable 4.6 mph - N/A   Clear
2:53 PM 99.0 °F 6.1 °F 4% 29.65 in 10.0 mi Variable 4.6 mph 25.3 mph N/A   Clear
3:53 PM 99.0 °F 6.1 °F 4% 29.63 in 10.0 mi SW 11.5 mph 29.9 mph N/A   Clear
4:53 PM 99.0 °F 3.0 °F 4% 29.62 in 10.0 mi South 12.7 mph 20.7 mph N/A   Clear
5:53 PM 97.0 °F 1.0 °F 4% 29.62 in 10.0 mi SW 11.5 mph 20.7 mph N/A   Clear
6:53 PM 93.9 °F -2.0 °F 4% 29.61 in 10.0 mi SW 12.7 mph 27.6 mph N/A   Clear
7:53 PM 91.9 °F 1.0 °F 4% 29.62 in 10.0 mi SW 8.1 mph 25.3 mph N/A   Clear
8:53 PM 89.1 °F 5.0 °F 4% 29.65 in 10.0 mi SW 6.9 mph - N/A   Clear
9:53 PM 88.0 °F 12.9 °F 6% 29.68 in 10.0 mi SW 8.1 mph - N/A   Clear
10:53 PM 82.9 °F 12.9 °F 7% 29.69 in 10.0 mi South 4.6 mph - N/A   Clear
11:53 PM 82.0 °F 12.9 °F 7% 29.69 in 10.0 mi South 10.4 mph - N/A   Clear